Regional Weather Roundup
Issued by NWS Kansas City/Pleasant Hill, MO

Home | Current Version | Previous Version | Graphics & Text | Print | Product List | Glossary Off
Versions: 1 2 3 4 5 6 7 8 9 10 11 12 13 14 15 16 17 18 19 20 21 22 23 24 25 26 27 28

000
ASUS43 KEAX 260710
RWREAX

WEATHER ROUNDUP FOR EASTERN KANSAS AND NORTHWEST MISSOURI
NATIONAL WEATHER SERVICE KANSAS CITY/PLEASANT HILL MO
200 AM CDT TUE SEP 26 2017

KSZ040-057-103>105-MOZ028-029-037-043-260800-
...KANSAS CITY METROPOLITAN AREA...

CITY           SKY/WX    TMP DP  RH WIND       PRES   REMARKS
K.C. INTL      CLOUDY    67  64  90 NE6       29.94S
K.C. DOWNTOWN  CLOUDY    70  64  81 NE6       29.92F
LEES SUMMIT    MOCLDY    68  64  87 N7        29.95S
OLATHE - IXD   LGT RAIN  67  63  87 NE5       29.94F
OLATHE - OJC   CLOUDY    67  64  90 NE5       29.94S
LAWRENCE       CLOUDY    66  66 100 CALM      29.94R

$$

MOZ001>008-011>017-020>025-030>033-038>040-044>046-053-054-260800-
...NORTHERN AND CENTRAL MISSOURI...

CITY           SKY/WX    TMP DP  RH WIND       PRES   REMARKS
ST. JOSEPH     CLOUDY    66  66 100 E5        29.93S
MOSBY          CLOUDY    68  63  83 CALM      29.93S
WARRENSBURG    CLOUDY    68  63  83 N5        29.93S
WHITEMAN AFB   PTCLDY    69  69 100 N3        29.92S
CLINTON        CLOUDY    70  66  88 N3        29.94R
SEDALIA        CLOUDY    73  66  78 SW5       29.94R
WARSAW         NOT AVBL
CHILLICOTHE      N/A     70  67  90 N6        29.94F
KIRKSVILLE     MOCLDY    69  65  86 E5        29.93S

$$

MOZ041-047>049-056>058-063>065-088>090-097-260800-
...EASTERN AND SOUTHERN MISSOURI...

CITY           SKY/WX    TMP DP  RH WIND       PRES   REMARKS
ST. LOUIS INTL CLEAR     77  62  59 SW3       29.96R
SPIRIT OF STL  CLEAR     65  65 100 CALM      29.94S
COLUMBIA       CLEAR     70  64  81 S8        29.94S
JEFFERSON CITY CLEAR     69  63  81 SE3       29.93S
ROLLA          PTCLDY    71  62  73 S8        29.97S
SPRINGFIELD    CLEAR     71  63  75 S9        29.95R
BRANSON        CLEAR     72  63  73 S6        29.98R
JOPLIN         CLOUDY    72  67  84 CALM      29.93S
WEST PLAINS    CLEAR     65  61  87 CALM      29.99S

$$

IAZ060-094-KSZ022-034>040-054-083-096-NEZ052-066-093-260800-
...KANSAS...SOUTHEAST NEBRASKA AND IOWA...

CITY           SKY/WX    TMP DP  RH WIND       PRES   REMARKS
TOPEKA         CLOUDY    67  67 100 NW3       29.95R
MANHATTAN      CLOUDY    66  65  96 CALM      29.97R
EMPORIA        CLOUDY    65  64  97 N5        29.95F
CHANUTE        CLOUDY    69  64  84 N6        29.94S
WICHITA        CLOUDY    64  64 100 NW12      29.98R
OMAHA          LGT RAIN  59  55  87 NW7       29.97S
LINCOLN        CLOUDY    57  55  93 NW10      30.01R
FALLS CITY     CLOUDY    66  64  93 CALM      29.94R
LAMONI         CLOUDY    67  67 100 E3        29.94F FOG
DES MOINES     CLOUDY    67  66  97 S6        29.95R

$$





USA.gov is the U.S. government's official web portal to all federal, state and local government web resources and services.